Terminal Aerodrome Forecast
Issued by NWS Charleston, SC

Home | Current Version | Previous Version | Text Only | Print | Product List | Glossary On
Versions: 1 2 3 4 5 6 7 8 9 10 11 12 13 14 15 16 17 18 19 20 21 22 23 24 25 26 27 28 29 30 31 32 33 34 35
000
FTUS42 KCHS 310236 AAB
TAFSAV
TAF AMD
KSAV 310236Z 3103/3124 13007KT 3SM -RA BR SCT010 BKN015
     FM310330 08008KT 3SM BR VCSH SCT007 BKN015
     FM310800 VRB04KT 2SM BR SCT006 BKN010
     FM311500 35006KT P6SM SCT015 BKN035
     FM312100 14008KT P6SM FEW020 BKN060=

USA.gov is the U.S. government's official web portal to all federal, state and local government web resources and services.